Location: Cuiry
(49.3858°N, 3.7708°E)
Time: 00:55:46
(UTC+00:00)

Cosmos 676 Rocket - Pass Details

Date: 12 January 2026
Orbit: 750 x 779 km, 74.0° (Epoch: 18 February)

Event Time Altitude Azimuth Distance (km) Brightness Sun altitude
Rises 17:12:55 0° 337° (NNW) 3,214 7.2 -9.9°
Reaches altitude 10° 17:15:18 10° 340° (NNW) 2,288 6.5 -10.3°
Maximum altitude 17:20:29 70° 65° (ENE) 808 3.9 -11.1°
Drops below altitude 10° 17:25:39 10° 149° (SSE) 2,288 6.3 -11.9°
Sets 17:28:02 0° 151° (SSE) 3,214 7.1 -12.3°
